| time (UTC) | temp F | wind direction | speed knots | gust knots | rain 1hr in | rain 24hr in | rain mn in | humidity % | barometer mb |
| 20260504150825 | 71 | 215 | 0.9 | 5.2 | 0.00 | 0.00 | 0.00 | 34 | 1014.8 |
| 20260504150322 | 71 | 213 | 1.7 | 6.1 | 0.00 | 0.00 | 0.00 | 33 | 1014.8 |
| 20260504141252 | 67 | 236 | 1.7 | 1.7 | 0.00 | 0.00 | 0.00 | 36 | 1014.9 |
| 20260504140749 | 68 | 210 | 0.9 | 1.7 | 0.00 | 0.00 | 0.00 | 36 | 1015.0 |
| 20260504140244 | 68 | 211 | 1.7 | 2.6 | 0.00 | 0.00 | 0.00 | 37 | 1014.8 |
| 20260504130713 | 60 | 234 | 0.0 | 2.6 | 0.00 | 0.00 | 0.00 | 48 | 1015.5 |
| 20260504130209 | 60 | 220 | 1.7 | 2.6 | 0.00 | 0.00 | 0.00 | 48 | 1015.4 |
| 20260504120133 | 54 | 188 | 0.9 | 1.7 | 0.00 | 0.00 | 0.00 | 56 | 1015.7 |
| 20260504110600 | 51 | 214 | 0.9 | 0.9 | 0.00 | 0.00 | 0.00 | 61 | 1015.9 |
| 20260504100522 | 50 | 203 | 0.0 | 0.0 | 0.00 | 0.00 | 0.00 | 62 | 1015.8 |
| 20260504081915 | 50 | 183 | 0.9 | 2.6 | 0.00 | 0.00 | 0.00 | 63 | 1015.9 |
| 20260504081412 | 50 | 165 | 1.7 | 1.7 | 0.00 | 0.00 | 0.00 | 63 | 1016.1 |
| 20260504080908 | 50 | 190 | 0.9 | 1.7 | 0.00 | 0.00 | 0.00 | 63 | 1016.3 |
| 20260504080405 | 50 | 190 | 0.9 | 0.9 | 0.00 | 0.00 | 0.00 | 64 | 1016.3 |
| 20260504070333 | 50 | 209 | 0.0 | 0.0 | 0.00 | 0.00 | 0.00 | 56 | 1016.3 |
| 20260504050721 | 47 | 200 | 0.0 | 0.0 | 0.00 | 0.00 | 0.00 | 64 | 1016.6 |
| 20260504050218 | 46 | 200 | 0.0 | 0.0 | 0.00 | 0.00 | 0.00 | 65 | 1016.6 |
| 20260504045715 | 46 | 200 | 0.0 | 0.0 | 0.00 | 0.00 | 0.00 | 66 | 1016.6 |
| 20260504045215 | 45 | 200 | 0.0 | 0.0 | 0.00 | 0.00 | 0.00 | 66 | 1016.8 |
| 20260504044713 | 45 | 200 | 0.0 | 0.0 | 0.00 | 0.00 | 0.00 | 67 | 1016.6 |
| 20260504044210 | 44 | 200 | 0.0 | 0.0 | 0.00 | 0.00 | 0.00 | 67 | 1016.7 |
| 20260504043707 | 44 | 200 | 0.0 | 0.0 | 0.00 | 0.00 | 0.00 | 67 | 1016.6 |
| 20260504043204 | 44 | 200 | 0.0 | 0.0 | 0.00 | 0.00 | 0.00 | 68 | 1016.6 |
| 20260504042702 | 43 | 200 | 0.0 | 0.0 | 0.00 | 0.00 | 0.00 | 67 | 1016.5 |
| 20260504042158 | 44 | 200 | 0.0 | 0.0 | 0.00 | 0.00 | 0.00 | 66 | 1016.5 |
| 20260504041654 | 44 | 200 | 0.0 | 0.0 | 0.00 | 0.00 | 0.00 | 67 | 1016.8 |
| 20260504041150 | 44 | 200 | 0.0 | 0.0 | 0.00 | 0.00 | 0.00 | 68 | 1016.6 |
| 20260504040647 | 44 | 200 | 0.0 | 0.0 | 0.00 | 0.00 | 0.00 | 68 | 1016.6 |
| 20260504040144 | 44 | 200 | 0.0 | 0.0 | 0.00 | 0.00 | 0.00 | 68 | 1016.6 |
| 20260504035641 | 43 | 200 | 0.0 | 0.0 | 0.00 | 0.00 | 0.00 | 67 | 1016.7 |
| 20260504035137 | 43 | 200 | 0.0 | 0.0 | 0.00 | 0.00 | 0.00 | 69 | 1016.7 |
| 20260504034635 | 44 | 200 | 0.0 | 0.0 | 0.00 | 0.00 | 0.00 | 68 | 1016.6 |
| 20260504034132 | 44 | 200 | 0.0 | 0.0 | 0.00 | 0.00 | 0.00 | 68 | 1016.6 |
| 20260504033630 | 44 | 200 | 0.0 | 0.0 | 0.00 | 0.00 | 0.00 | 68 | 1016.7 |
| 20260504033127 | 44 | 200 | 0.0 | 0.0 | 0.00 | 0.00 | 0.00 | 67 | 1016.7 |
| 20260504032624 | 45 | 201 | 0.0 | 0.0 | 0.00 | 0.00 | 0.00 | 68 | 1016.6 |
| 20260504032120 | 45 | 198 | 0.0 | 0.0 | 0.00 | 0.00 | 0.00 | 68 | 1016.5 |
| 20260504031618 | 45 | 198 | 0.0 | 0.0 | 0.00 | 0.00 | 0.00 | 68 | 1016.5 |
| 20260504031113 | 45 | 198 | 0.0 | 0.0 | 0.00 | 0.00 | 0.00 | 68 | 1016.4 |
| 20260504030611 | 45 | 214 | 0.0 | 0.0 | 0.00 | 0.00 | 0.00 | 68 | 1016.4 |
| 20260504030107 | 45 | 220 | 0.0 | 0.0 | 0.00 | 0.00 | 0.00 | 67 | 1016.3 |
| 20260504025604 | 45 | 220 | 0.0 | 0.0 | 0.00 | 0.00 | 0.00 | 67 | 1016.4 |
| 20260504025101 | 45 | 215 | 0.0 | 0.0 | 0.00 | 0.00 | 0.00 | 66 | 1016.4 |
| 20260504024559 | 45 | 215 | 0.0 | 0.0 | 0.00 | 0.00 | 0.00 | 66 | 1016.2 |
| 20260504024055 | 46 | 213 | 0.0 | 0.0 | 0.00 | 0.00 | 0.00 | 65 | 1016.3 |
| 20260504023552 | 46 | 213 | 0.0 | 0.0 | 0.00 | 0.00 | 0.00 | 64 | 1016.2 |
| 20260504023048 | 46 | 213 | 0.0 | 0.0 | 0.00 | 0.00 | 0.00 | 63 | 1016.2 |
| 20260504022544 | 47 | 213 | 0.0 | 0.0 | 0.00 | 0.00 | 0.00 | 62 | 1016.2 |
| 20260504022040 | 47 | 213 | 0.0 | 0.0 | 0.00 | 0.00 | 0.00 | 62 | 1016.1 |
| 20260504021538 | 47 | 213 | 0.0 | 0.0 | 0.00 | 0.00 | 0.00 | 62 | 1016.1 |
| 20260504021034 | 47 | 213 | 0.0 | 0.0 | 0.00 | 0.00 | 0.00 | 62 | 1015.9 |
| 20260504020531 | 47 | 213 | 0.0 | 0.0 | 0.00 | 0.00 | 0.00 | 61 | 1016.1 |
| 20260504020028 | 48 | 213 | 0.0 | 0.0 | 0.00 | 0.00 | 0.00 | 60 | 1015.8 |
| 20260504015524 | 48 | 213 | 0.0 | 0.0 | 0.00 | 0.00 | 0.00 | 59 | 1015.9 |
| 20260504015020 | 49 | 213 | 0.0 | 0.0 | 0.00 | 0.00 | 0.00 | 58 | 1015.9 |
| 20260504014517 | 49 | 203 | 0.0 | 0.0 | 0.00 | 0.00 | 0.00 | 57 | 1015.8 |
| 20260504014014 | 49 | 200 | 0.0 | 0.0 | 0.00 | 0.00 | 0.00 | 55 | 1015.8 |
| 20260504013512 | 50 | 191 | 0.0 | 0.0 | 0.00 | 0.00 | 0.00 | 54 | 1015.8 |
| 20260504013009 | 50 | 195 | 0.0 | 0.0 | 0.00 | 0.00 | 0.00 | 54 | 1015.8 |
| 20260504012506 | 50 | 195 | 0.0 | 0.0 | 0.00 | 0.00 | 0.00 | 53 | 1015.7 |
| 20260504012004 | 50 | 201 | 0.0 | 0.0 | 0.00 | 0.00 | 0.00 | 52 | 1015.7 |
| 20260504011500 | 51 | 215 | 0.0 | 0.0 | 0.00 | 0.00 | 0.00 | 50 | 1015.7 |
| 20260504010955 | 51 | 215 | 0.0 | 0.0 | 0.00 | 0.00 | 0.00 | 51 | 1015.8 |
| 20260504010452 | 51 | 216 | 0.0 | 0.0 | 0.00 | 0.00 | 0.00 | 49 | 1015.6 |
| 20260504005948 | 52 | 218 | 0.0 | 0.0 | 0.00 | 0.00 | 0.00 | 46 | 1015.5 |
| 20260504005445 | 53 | 218 | 0.0 | 0.0 | 0.00 | 0.00 | 0.00 | 45 | 1015.6 |
| 20260504004942 | 53 | 218 | 0.0 | 0.0 | 0.00 | 0.00 | 0.00 | 45 | 1015.6 |
| 20260504004440 | 54 | 220 | 0.0 | 0.0 | 0.00 | 0.00 | 0.00 | 44 | 1015.4 |
| 20260504003937 | 55 | 211 | 0.0 | 0.0 | 0.00 | 0.00 | 0.00 | 42 | 1015.5 |
| 20260504003433 | 55 | 192 | 0.0 | 0.0 | 0.00 | 0.00 | 0.00 | 39 | 1015.4 |
| 20260504002930 | 56 | 182 | 0.0 | 0.0 | 0.00 | 0.00 | 0.00 | 38 | 1015.3 |
| 20260504002427 | 56 | 194 | 0.0 | 0.0 | 0.00 | 0.00 | 0.00 | 37 | 1015.3 |
| 20260504001924 | 57 | 199 | 0.0 | 0.0 | 0.00 | 0.00 | 0.00 | 36 | 1015.4 |
| 20260504001422 | 57 | 202 | 0.0 | 0.0 | 0.00 | 0.00 | 0.00 | 35 | 1015.4 |
| 20260504000918 | 57 | 200 | 0.0 | 0.0 | 0.00 | 0.00 | 0.00 | 36 | 1015.1 |
| 20260504000416 | 58 | 200 | 0.0 | 0.0 | 0.00 | 0.00 | 0.00 | 35 | 1015.1 |
| 20260503235913 | 58 | 222 | 0.0 | 0.0 | 0.00 | 0.00 | 0.00 | 35 | 1015.0 |
| 20260503235410 | 59 | 231 | 0.9 | 2.6 | 0.00 | 0.00 | 0.00 | 33 | 1015.1 |
| 20260503234908 | 59 | 233 | 0.0 | 0.0 | 0.00 | 0.00 | 0.00 | 35 | 1015.0 |
| 20260503234405 | 59 | 246 | 0.9 | 1.7 | 0.00 | 0.00 | 0.00 | 32 | 1014.9 |
| 20260503233903 | 60 | 193 | 0.0 | 1.7 | 0.00 | 0.00 | 0.00 | 34 | 1015.0 |
| 20260503233359 | 60 | 221 | 0.0 | 0.9 | 0.00 | 0.00 | 0.00 | 34 | 1015.1 |
| 20260503232855 | 60 | 184 | 0.9 | 1.7 | 0.00 | 0.00 | 0.00 | 35 | 1015.1 |
| 20260503232353 | 60 | 194 | 0.0 | 0.9 | 0.00 | 0.00 | 0.00 | 33 | 1014.9 |
| 20260503231850 | 61 | 206 | 0.0 | 1.7 | 0.00 | 0.00 | 0.00 | 32 | 1014.9 |
| 20260503231347 | 62 | 236 | 0.9 | 1.7 | 0.00 | 0.00 | 0.00 | 30 | 1014.9 |
| 20260503230843 | 64 | 229 | 0.0 | 1.7 | 0.00 | 0.00 | 0.00 | 31 | 1014.7 |
| 20260503230340 | 64 | 248 | 1.7 | 2.6 | 0.00 | 0.00 | 0.00 | 29 | 1014.6 |
| 20260503225838 | 63 | 279 | 1.7 | 5.2 | 0.00 | 0.00 | 0.00 | 29 | 1014.8 |
| 20260503225333 | 65 | 218 | 0.9 | 3.5 | 0.00 | 0.00 | 0.00 | 28 | 1014.8 |
| 20260503224830 | 65 | 347 | 0.9 | 1.7 | 0.00 | 0.00 | 0.00 | 28 | 1014.7 |
| 20260503224328 | 65 | 217 | 0.0 | 2.6 | 0.00 | 0.00 | 0.00 | 28 | 1014.7 |
| 20260503223825 | 65 | 293 | 0.9 | 1.7 | 0.00 | 0.00 | 0.00 | 28 | 1014.7 |
| 20260503223322 | 64 | 201 | 0.0 | 0.9 | 0.00 | 0.00 | 0.00 | 29 | 1014.9 |
| 20260503222818 | 63 | 227 | 3.5 | 7.0 | 0.00 | 0.00 | 0.00 | 28 | 1014.8 |
| 20260503222317 | 64 | 39 | 0.9 | 7.0 | 0.00 | 0.00 | 0.00 | 28 | 1014.8 |
| 20260503221815 | 64 | 296 | 3.5 | 7.8 | 0.00 | 0.00 | 0.00 | 27 | 1014.8 |
| 20260503221313 | 65 | 298 | 1.7 | 3.5 | 0.00 | 0.00 | 0.00 | 29 | 1014.9 |
| 20260503220808 | 64 | 208 | 0.9 | 2.6 | 0.00 | 0.00 | 0.00 | 28 | 1014.7 |
| 20260503220306 | 64 | 230 | 0.9 | 5.2 | 0.00 | 0.00 | 0.00 | 28 | 1014.8 |
| 20260503215802 | 64 | 215 | 0.0 | 2.6 | 0.00 | 0.00 | 0.00 | 29 | 1014.9 |
| 20260503215259 | 64 | 257 | 2.6 | 6.1 | 0.00 | 0.00 | 0.00 | 27 | 1014.9 |
| 20260503214757 | 64 | 274 | 3.5 | 6.1 | 0.00 | 0.00 | 0.00 | 27 | 1015.1 |
| 20260503214254 | 63 | 229 | 0.9 | 1.7 | 0.00 | 0.00 | 0.00 | 30 | 1014.9 |
| 20260503213752 | 63 | 340 | 4.3 | 7.0 | 0.00 | 0.00 | 0.00 | 28 | 1015.1 |
| 20260503213249 | 64 | 239 | 1.7 | 6.1 | 0.00 | 0.00 | 0.00 | 29 | 1014.9 |
| 20260503212746 | 64 | 295 | 0.9 | 2.6 | 0.00 | 0.00 | 0.00 | 29 | 1015.2 |
| 20260503212244 | 63 | 190 | 0.0 | 1.7 | 0.00 | 0.00 | 0.00 | 30 | 1015.0 |
| 20260503211741 | 63 | 143 | 1.7 | 6.1 | 0.00 | 0.00 | 0.00 | 29 | 1015.1 |
| 20260503211237 | 64 | 179 | 3.5 | 6.1 | 0.00 | 0.00 | 0.00 | 28 | 1014.9 |
| 20260503210732 | 64 | 22 | 0.9 | 2.6 | 0.00 | 0.00 | 0.00 | 29 | 1015.2 |
| 20260503210230 | 64 | 334 | 3.5 | 6.1 | 0.00 | 0.00 | 0.00 | 28 | 1015.2 |
| 20260503205725 | 63 | 277 | 4.3 | 7.8 | 0.00 | 0.00 | 0.00 | 28 | 1015.1 |
| 20260503205222 | 64 | 260 | 7.8 | 12.2 | 0.00 | 0.00 | 0.00 | 28 | 1015.3 |
| 20260503204718 | 64 | 249 | 3.5 | 6.1 | 0.00 | 0.00 | 0.00 | 29 | 1015.2 |
| 20260503204216 | 63 | 322 | 3.5 | 5.2 | 0.00 | 0.00 | 0.00 | 28 | 1015.1 |
| 20260503203713 | 63 | 186 | 1.7 | 6.1 | 0.00 | 0.00 | 0.00 | 30 | 1015.2 |
| 20260503203211 | 64 | 282 | 2.6 | 6.1 | 0.00 | 0.00 | 0.00 | 29 | 1015.1 |
| 20260503202708 | 64 | 36 | 0.9 | 5.2 | 0.00 | 0.00 | 0.00 | 31 | 1015.2 |
| 20260503202206 | 64 | 261 | 0.0 | 1.7 | 0.00 | 0.00 | 0.00 | 31 | 1015.2 |
| 20260503201703 | 64 | 247 | 1.7 | 2.6 | 0.00 | 0.00 | 0.00 | 31 | 1015.4 |
| 20260503201200 | 63 | 218 | 2.6 | 3.5 | 0.00 | 0.00 | 0.00 | 31 | 1015.5 |
| 20260503200656 | 63 | 4 | 2.6 | 7.0 | 0.00 | 0.00 | 0.00 | 30 | 1015.6 |
| 20260503200153 | 63 | 273 | 2.6 | 7.0 | 0.00 | 0.00 | 0.00 | 29 | 1015.8 |
| 20260503195650 | 63 | 87 | 0.9 | 3.5 | 0.00 | 0.00 | 0.00 | 31 | 1015.8 |
| 20260503195147 | 63 | 38 | 1.7 | 5.2 | 0.00 | 0.00 | 0.00 | 33 | 1015.8 |
| 20260503194644 | 62 | 217 | 0.9 | 6.1 | 0.00 | 0.00 | 0.00 | 32 | 1015.8 |
| 20260503194139 | 63 | 25 | 2.6 | 7.8 | 0.00 | 0.00 | 0.00 | 30 | 1015.7 |
| 20260503193637 | 61 | 244 | 0.0 | 5.2 | 0.00 | 0.00 | 0.00 | 31 | 1015.9 |
| 20260503193132 | 61 | 332 | 5.2 | 7.0 | 0.00 | 0.00 | 0.00 | 33 | 1016.2 |
| 20260503192628 | 62 | 290 | 4.3 | 11.3 | 0.00 | 0.00 | 0.00 | 30 | 1016.1 |
| 20260503192123 | 61 | 278 | 0.9 | 6.1 | 0.00 | 0.00 | 0.00 | 33 | 1016.1 |
| 20260503191621 | 60 | 214 | 2.6 | 7.0 | 0.00 | 0.00 | 0.00 | 33 | 1016.2 |
| 20260503191118 | 60 | 328 | 9.6 | 13.0 | 0.00 | 0.00 | 0.00 | 32 | 1016.3 |
| 20260503190615 | 60 | 332 | 0.9 | 2.6 | 0.00 | 0.00 | 0.00 | 34 | 1016.6 |
| 20260503190112 | 60 | 327 | 2.6 | 8.7 | 0.00 | 0.00 | 0.00 | 33 | 1016.7 |
| 20260503185608 | 61 | 258 | 2.6 | 5.2 | 0.00 | 0.00 | 0.00 | 32 | 1016.8 |
| 20260503185108 | 62 | 254 | 0.9 | 12.2 | 0.00 | 0.00 | 0.00 | 33 | 1016.5 |
| 20260503184603 | 62 | 341 | 1.7 | 3.5 | 0.00 | 0.00 | 0.00 | 35 | 1016.8 |
| 20260503184100 | 61 | 193 | 1.7 | 3.5 | 0.00 | 0.00 | 0.00 | 33 | 1016.8 |
| 20260503183557 | 60 | 246 | 1.7 | 2.6 | 0.00 | 0.00 | 0.00 | 35 | 1016.8 |
| 20260503183054 | 60 | 273 | 2.6 | 5.2 | 0.00 | 0.00 | 0.00 | 34 | 1016.9 |
| 20260503182553 | 62 | 243 | 1.7 | 7.0 | 0.00 | 0.00 | 0.00 | 35 | 1017.0 |
| 20260503182050 | 62 | 3 | 2.6 | 3.5 | 0.00 | 0.00 | 0.00 | 33 | 1016.8 |
| 20260503181547 | 61 | 269 | 1.7 | 6.1 | 0.00 | 0.00 | 0.00 | 35 | 1017.0 |
| 20260503181043 | 61 | 49 | 3.5 | 7.0 | 0.00 | 0.00 | 0.00 | 35 | 1017.0 |
| 20260503180541 | 61 | 290 | 2.6 | 3.5 | 0.00 | 0.00 | 0.00 | 37 | 1016.9 |
| 20260503180038 | 60 | 61 | 2.6 | 7.8 | 0.00 | 0.00 | 0.00 | 34 | 1017.2 |
| 20260503175535 | 59 | 296 | 0.9 | 6.1 | 0.00 | 0.00 | 0.00 | 35 | 1017.2 |
| 20260503175033 | 58 | 138 | 1.7 | 3.5 | 0.00 | 0.00 | 0.00 | 36 | 1017.0 |
| 20260503174530 | 59 | 266 | 2.6 | 9.6 | 0.00 | 0.00 | 0.00 | 34 | 1017.1 |
| 20260503174026 | 59 | 182 | 1.7 | 7.0 | 0.00 | 0.00 | 0.00 | 34 | 1017.1 |
| 20260503173521 | 58 | 322 | 3.5 | 5.2 | 0.00 | 0.00 | 0.00 | 36 | 1017.3 |
| 20260503173017 | 59 | 69 | 2.6 | 13.0 | 0.00 | 0.00 | 0.00 | 35 | 1017.2 |
| 20260503172515 | 58 | 289 | 1.7 | 9.6 | 0.00 | 0.00 | 0.00 | 34 | 1017.2 |
| 20260503172012 | 58 | 220 | 5.2 | 7.8 | 0.00 | 0.00 | 0.00 | 35 | 1017.4 |
| 20260503171509 | 58 | 264 | 3.5 | 9.6 | 0.00 | 0.00 | 0.00 | 35 | 1017.4 |
| 20260503171006 | 59 | 14 | 1.7 | 8.7 | 0.00 | 0.00 | 0.00 | 34 | 1017.6 |
| 20260503170502 | 59 | 256 | 1.7 | 3.5 | 0.00 | 0.00 | 0.00 | 35 | 1017.3 |